Location: Gold Fund Mine
(38.3819°N, 119.0996°W)
Time: 23:52:42
(UTC+00:00)

X-37B - Pass Details

Date: 18 September 2020
Orbit: 382 x 392 km, 45.0° (Epoch: 15 October)

Event Time Altitude Azimuth Distance (km) Brightness Sun altitude
Exits shadow 12:38:40 12° 311° (NW) 1,305 2.9 -13.0°
Maximum altitude 12:41:01 24° 5° (N) 845 2.5 -12.5°
Drops below altitude 10° 12:43:40 10° 62° (ENE) 1,405 4.7 -12.0°
Sets 12:45:59 0° 77° (ENE) 2,260 6.7 -11.6°
